• MPC Preparation (Info)

  • MPEC 2016-O194: 2014 DP143

    The following Minor Planet Electronic Circular may be linked-to from your own Web pages, but must not otherwise be redistributed electronically.

    A form allowing access to any MPEC is at the bottom of this page.


    Read MPEC 2016-O193 Read MPEC 2016-O195


    M.P.E.C. 2016-O194                               Issued 2016 July 17, 15:52 UT
    
         The Minor Planet Electronic Circulars contain information on unusual
             minor planets and routine data on comets.  They are published
        on behalf of Division F of the International Astronomical Union by the
              Minor Planet Center, Smithsonian Astrophysical Observatory,
                              Cambridge, MA 02138, U.S.A.
    
                 Prepared using the Tamkin Foundation Computer Network
    
                                  MPC@CFA.HARVARD.EDU
                URL https://www.minorplanetcenter.net/    ISSN 1523-6714
    
                                      2014 DP143
    
    Observations:
         K14DE3P* C2014 02 25.57127 13 54 53.341-08 41 55.05         22.2 wLEO194F51
         K14DE3P  C2014 02 25.59651 13 54 53.269-08 41 54.38         22.3 wLEO194F51
         K14DE3P  C2014 02 25.60909 13 54 53.224-08 41 53.67         22.5 wLEO194F51
         K14DE3P  C2014 04 04.44975 13 52 03.486-08 17 06.93         22.1 wLEO194F51
         K14DE3P  C2014 04 04.46112 13 52 03.427-08 17 06.35         22.3 wLEO194F51
         K14DE3P  C2014 04 04.47248 13 52 03.358-08 17 05.72         22.2 wLEO194F51
         K14DE3P  C2014 04 04.48383 13 52 03.262-08 17 05.13         22.5 wLEO194F51
         K14DE3P  C2014 04 28.44006 13 49 41.047-07 59 21.80         22.1 wLEO194F51
         K14DE3P  C2014 04 28.45300 13 49 40.967-07 59 21.59         22.2 wLEO194F51
         K14DE3P  C2014 04 28.46589 13 49 40.899-07 59 20.97         22.2 wLEO194F51
         K14DE3P  C2014 06 29.27570 13 45 33.583-07 29 25.70         22.5 wLEO194F51
         K14DE3P  C2014 06 29.28678 13 45 33.572-07 29 25.80         22.9 wLEO194F51
         K14DE3P  C2014 06 29.29789 13 45 33.556-07 29 25.58         22.3 wLEO194F51
         K14DE3P  C2014 06 29.30898 13 45 33.550-07 29 25.58         22.7 wLEO194F51
         K14DE3P  C2015 01 26.60938 14 05 15.512-08 43 30.46         22.4 wLEO194F51
         K14DE3P  C2015 01 26.62135 14 05 15.532-08 43 30.33         22.6 wLEO194F51
         K14DE3P  C2015 01 26.63330 14 05 15.540-08 43 29.96         22.4 wLEO194F51
         K14DE3P  C2015 01 26.64530 14 05 15.552-08 43 30.06         22.7 wLEO194F51
         K14DE3P  C2015 01 30.58137 14 05 19.762-08 42 39.07         22.5 wLEO194F51
         K14DE3P  C2015 01 30.59347 14 05 19.772-08 42 39.01         22.6 wLEO194F51
         K14DE3P  C2015 01 30.60553 14 05 19.784-08 42 38.73         22.2 wLEO194F51
         K14DE3P  C2015 02 24.58153 14 04 59.665-08 33 09.22         22.1 wLEO194F51
         K14DE3P  C2015 02 24.59455 14 04 59.655-08 33 08.69         22.3 wLEO194F51
         K14DE3P  C2015 02 24.60756 14 04 59.608-08 33 08.49         22.4 wLEO194F51
         K14DE3P  C2015 02 24.62061 14 04 59.557-08 33 07.89         22.4 wLEO194F51
    
    Observer details:
    F51 Pan-STARRS 1, Haleakala.  Observers B. Gibson, T. Goggia, N. Primak,
        A. Schultz, M. Willman.  Measurers K. Chambers, S. Chastel, Y.-T. Chen,
        L. Denneau, H. Flewelling, M. Holman, M. Huber, R. Jedicke, M. Lackner,
        E. Lilly, H.-W. Lin, E. Magnier, M. Micheli, M. Payne, P. Veres,
        R. Wainscoat, C. Waters, R. Weryk.  1.8-m Ritchey-Chretien + CCD.
    
    Orbital elements:
    2014 DP143
    Epoch 2016 July 31.0 TT = JDT 2457600.5                 MPC
    M 347.59286              (2000.0)            P               Q
    n   0.00393608     Peri.   34.65712     -0.56903358     +0.80801399
    a  39.7277017      Node   201.94264     -0.81614023     -0.57765086
    e   0.2624402      Incl.   24.11774     -0.10057788     +0.11590028
    P 250              H    7.4           G   0.15           U   4
    Residuals in seconds of arc
    140225 F51  0.0   0.1-    140428 F51  0.2+  0.1-    150130 F51  0.2-  0.0
    140225 F51  0.1+  0.2-    140629 F51  0.0   0.1+    150130 F51  0.2-  0.1-
    140225 F51  0.1-  0.1+    140629 F51  0.0   0.1-    150130 F51  0.1-  0.0
    140404 F51  0.0   0.1-    140629 F51  0.1-  0.0     150224 F51  0.1+  0.1-
    140404 F51  0.1+  0.0     140629 F51  0.0   0.1-    150224 F51  0.4+  0.0
    140404 F51  0.1+  0.1+    150126 F51  0.0   0.1+    150224 F51  0.2+  0.2-
    140404 F51  0.4-  0.2+    150126 F51  0.0   0.1+    150224 F51  0.1-  0.0
    140428 F51  0.0   0.2+    150126 F51  0.1-  0.3+
    140428 F51  0.0   0.1-    150126 F51  0.1-  0.1+
    
    Ephemeris:
    2014 DP143               a,e,i = 39.73, 0.26, 24                 q = 29.302
    Date    TT    R. A. (2000) Decl.     Delta      r     Elong.  Phase     V
    2016 06 17    14 05 59.2 -07 13 33  29.1517 29.7555   125.7     1.6    22.3
    ...
    2016 07 02    14 05 26.6 -07 10 29  29.3670 29.7513   111.3     1.8    22.3
    ...
    2016 07 10    14 05 19.8 -07 09 55  29.4925 29.7491   103.7     1.9    22.3
    ...
    2016 07 16    14 05 19.9 -07 10 00  29.5894 29.7475    98.0     1.9    22.4
    2016 07 17    14 05 20.4 -07 10 03  29.6058 29.7472    97.0     1.9    22.4
    2016 07 18    14 05 20.9 -07 10 07  29.6221 29.7469    96.1     1.9    22.4
    ...
    2016 07 24    14 05 26.9 -07 10 44  29.7207 29.7452    90.4     2.0    22.4
    ...
    2016 08 01    14 05 41.9 -07 12 12  29.8522 29.7430    82.9     1.9    22.4
    ...
    2016 08 16    14 06 30.8 -07 16 43  30.0909 29.7389    68.8     1.8    22.4
    
    A. U. Tomatic                (C) Copyright 2016 MPC           M.P.E.C. 2016-O194
    

    Read MPEC 2016-O193 Read MPEC 2016-O195


    MPEC number:

    Enter an MPEC number in one of the following forms:

    • 1997-B01 (the full form)
    • J97B01 (the packed version of the full form)
    • B01 (the abbreviated form)